Location: Newark
(60.6561°N, 46.5772°E)
Time: 21:09:12
(UTC+00:00)

SR - All Passes

Search period start: 20 October 2019 00:00
Search period end: 30 October 2019 00:00
Orbit: 575 x 881 km, 66.7° (Epoch: 19 October)

Date Brightness Start Highest point End Pass type
(mag) Time Alt. Az. Time Alt. Az. Time Alt. Az.
20 Oct - 00:18:39 10° WNW 00:24:08 50° NNE 00:29:54 10° E visible
20 Oct - 02:01:03 10° NW 02:06:51 84° NE 02:12:50 10° SE visible
20 Oct - 03:43:22 10° WNW 03:48:42 38° WSW 03:54:07 10° S daylight
20 Oct - 05:28:04 10° W 05:29:24 11° W 05:30:45 10° WSW daylight
20 Oct - 18:23:47 10° SSE 18:27:35 21° ESE 18:31:39 10° ENE night (unlit)
20 Oct - 20:03:36 10° SW 20:08:48 67° SE 20:14:30 10° NE visible
20 Oct - 21:45:49 10° W 21:51:10 58° NNW 21:56:56 10° ENE visible
20 Oct - 23:28:45 10° WNW 23:34:09 47° N 23:39:51 10° ENE visible
21 Oct - 01:11:19 10° NW 01:17:03 67° NNE 01:22:59 10° ESE visible
21 Oct - 02:53:34 10° NW 02:59:14 55° SW 03:05:01 10° SSE visible
21 Oct - 04:36:36 10° WNW 04:40:22 18° WSW 04:44:08 10° SSW daylight
21 Oct - 17:36:12 10° SE 17:38:32 13° ESE 17:40:56 10° ENE night (unlit)
21 Oct - 19:14:19 10° SSW 19:19:18 46° SE 19:24:43 10° NE visible
21 Oct - 20:55:56 10° WSW 21:01:19 71° NNW 21:07:07 10° NE visible
21 Oct - 22:38:47 10° W 22:44:09 47° N 22:49:51 10° ENE visible
22 Oct - 00:21:32 10° WNW 00:27:09 56° NNE 00:33:01 10° E visible
22 Oct - 02:03:50 10° NW 02:09:39 76° SW 02:15:36 10° SE visible
22 Oct - 03:46:22 10° WNW 03:51:10 27° WSW 03:56:01 10° S daylight
22 Oct - 18:25:24 10° S 18:29:57 31° ESE 18:34:49 10° ENE night (unlit)
22 Oct - 20:06:12 10° SW 20:11:33 89° SE 20:17:21 10° NE visible
22 Oct - 21:48:48 10° W 21:54:10 51° NNW 21:59:54 10° ENE visible
22 Oct - 23:31:42 10° WNW 23:37:13 49° N 23:42:59 10° E visible
23 Oct - 01:14:08 10° NW 01:19:57 82° NE 01:25:56 10° ESE visible
23 Oct - 02:56:26 10° WNW 03:01:50 39° WSW 03:07:18 10° S visible
23 Oct - 04:40:49 10° W 04:42:34 11° WSW 04:44:20 10° WSW daylight
23 Oct - 17:36:58 10° SSE 17:40:44 20° ESE 17:44:42 10° ENE night (unlit)
23 Oct - 19:16:41 10° SW 19:21:55 65° SE 19:27:36 10° NE visible
23 Oct - 20:58:51 10° WSW 21:04:15 59° NNW 21:10:02 10° ENE visible
23 Oct - 22:41:48 10° WNW 22:47:13 47° N 22:52:56 10° ENE visible
24 Oct - 00:24:23 10° NW 00:30:08 66° NNE 00:36:04 10° ESE visible
24 Oct - 02:06:39 10° NW 02:12:22 56° SW 02:18:09 10° SSE visible
24 Oct - 03:49:37 10° WNW 03:53:31 18° WSW 03:57:25 10° SSW daylight
24 Oct - 16:49:30 10° SE 16:51:41 13° ESE 16:53:54 10° ENE night (unlit)
24 Oct - 18:27:26 10° SSW 18:32:25 45° SE 18:37:49 10° NE night (unlit)
24 Oct - 20:08:59 10° WSW 20:14:23 73° NNW 20:20:13 10° NE visible
24 Oct - 21:51:50 10° W 21:57:13 47° N 22:02:56 10° ENE visible
24 Oct - 23:34:36 10° WNW 23:40:14 55° NNE 23:46:06 10° E visible
25 Oct - 01:16:56 10° NW 01:22:46 78° SW 01:28:42 10° SE visible
25 Oct - 02:59:25 10° WNW 03:04:18 28° WSW 03:09:12 10° S visible
25 Oct - 17:38:32 10° S 17:43:04 30° ESE 17:47:55 10° ENE night (unlit)
25 Oct - 19:19:16 10° SW 19:24:38 87° SE 19:30:28 10° NE visible
25 Oct - 21:01:51 10° W 21:07:15 51° NNW 21:12:59 10° ENE visible
25 Oct - 22:44:45 10° WNW 22:50:17 49° N 22:56:03 10° E visible
26 Oct - 00:27:12 10° NW 00:33:02 81° NNE 00:39:02 10° ESE visible
26 Oct - 02:09:30 10° NW 02:14:58 41° WSW 02:20:27 10° S visible
26 Oct - 03:53:39 10° W 03:55:43 12° WSW 03:57:48 10° WSW daylight
26 Oct - 16:50:10 10° SSE 16:53:52 20° ESE 16:57:46 10° ENE night (unlit)
26 Oct - 18:29:46 10° SSW 18:35:01 63° SE 18:40:42 10° NE night (unlit)
26 Oct - 20:11:54 10° WSW 20:17:19 60° NNW 20:23:07 10° ENE visible
26 Oct - 21:54:50 10° WNW 22:00:17 47° N 22:06:00 10° ENE visible
26 Oct - 23:37:28 10° WNW 23:43:13 65° NNE 23:49:09 10° ESE visible
27 Oct - 01:19:44 10° NW 01:25:28 58° SW 01:31:17 10° SSE visible
27 Oct - 03:02:39 10° WNW 03:06:40 19° WSW 03:10:40 10° SSW visible
27 Oct - 16:02:50 10° SE 16:04:49 12° ESE 16:06:51 10° E night (unlit)
27 Oct - 17:40:32 10° SSW 17:45:31 43° SE 17:50:55 10° NE night (unlit)
27 Oct - 19:22:02 10° WSW 19:27:28 74° NNW 19:33:20 10° NE night (unlit)
27 Oct - 21:04:52 10° W 21:10:17 48° N 21:16:01 10° ENE visible
27 Oct - 22:47:40 10° WNW 22:53:20 54° NNE 22:59:10 10° E visible
28 Oct - 00:30:01 10° NW 00:35:52 80° SW 00:41:49 10° SE visible
28 Oct - 02:12:29 10° WNW 02:17:26 29° WSW 02:22:25 10° S visible
28 Oct - 16:51:41 10° S 16:56:11 29° ESE 17:01:00 10° ENE night (unlit)
28 Oct - 18:32:20 10° SW 18:37:44 85° SE 18:43:34 10° NE night (unlit)
28 Oct - 20:14:53 10° W 20:20:19 52° NNW 20:26:05 10° ENE visible
28 Oct - 21:57:48 10° WNW 22:03:22 49° N 22:09:07 10° E visible
28 Oct - 23:40:17 10° NW 23:46:08 79° NE 23:52:07 10° ESE visible
29 Oct - 01:22:35 10° NW 01:28:05 42° SW 01:33:36 10° SSE visible
29 Oct - 03:06:32 10° W 03:08:53 12° WSW 03:11:14 10° SW visible
29 Oct - 16:03:21 10° SSE 16:07:00 19° ESE 16:10:49 10° ENE night (unlit)
29 Oct - 17:42:51 10° SSW 17:48:07 61° SE 17:53:48 10° NE night (unlit)
29 Oct - 19:24:57 10° WSW 19:30:24 61° NNW 19:36:13 10° ENE night (unlit)
29 Oct - 21:07:53 10° WNW 21:13:22 47° N 21:19:05 10° ENE visible
29 Oct - 22:50:32 10° WNW 22:56:18 64° NNE 23:02:14 10° ESE visible
